Wittman Regional Airport (Oshkosh, WI) (OSH)


Airport Diagram
Current Weather/Forecast (VFR Conditions)
METAR KOSH 251053Z 36013KT 10SM FEW032 06/02 A2995 RMK AO2 PRESRR SLP147 T00610022
TAF

All Charts
General
Chart Name Download
AIRPORT DIAGRAM
TAKEOFF MINIMUMS
ALTERNATE MINIMUMS
HOT SPOT

Approaches
Chart Name Download
ILS OR LOC RWY 36
RNAV (GPS) RWY 09
RNAV (GPS) RWY 18
RNAV (GPS) RWY 27
RNAV (GPS) RWY 36
LOC/DME BC RWY 18
VOR RWY 09
VOR RWY 18
VOR RWY 27
VOR RWY 36
NDB RWY 36